Retour au catalogue

COSMOS 374 DEB *

ActifLEO
NORAD 5028·DEBRIS·🇷🇺 Russia

Lancé Oct 23, 1970 depuis Baikonur Cosmodrome

Loading…

Prochains Passages (prochaines 24 heures)

TLE

FraisSource: Space-Track

Époque: Sep 14, 2026, 15:13 UTC

1 05028U 70089Z   26257.63431025  .00000039  00000-0  11483-3 0  9997
2 05028  63.3112  28.8985 0647946 298.1858  55.5165 13.13904888618401

Suivez COSMOS 374 DEB * en temps réel avec AllMySat

Download on the App Store